Lexington Weather

Lexington, Massachusetts, USA

29°F
12/12/2019 3:54pm 
  • Lexington Conditions: Partly cloudy
  • Temperature: 28.6°F / -1.9°CColder 0.7°F than last hour.
  • Dew Point: 19.8°F 
  • Relative Humidity: 69%Increased 2.0% since last hour.
  • Wind: Wind from SSW SSW 1 mph, 10-min avg: 1 mph, gust: 3 mph
  • Barometer: 30.65 in Steady
  • Visibility: 10 miles
  • Snow Today: 0.0 in
  •   

Regional Weather Roundup
for Boston / Norton, MA

        
000
ASUS41 KBOX 112310
RWRBOX

REGIONAL WEATHER ROUNDUP
NATIONAL WEATHER SERVICE BOSTON/NORTON MA
600 PM EST WED DEC 11 2019

NOTE:  "FAIR" INDICATES FEW OR NO CLOUDS BELOW 12,000 FEET WITH NO 
SIGNIFICANT WEATHER AND/OR OBSTRUCTIONS TO VISIBILITY.

MAZALL-120000-
EASTERN MASSACHUSETTS
  
CITY           SKY/WX    TMP DP  RH WIND       PRES   REMARKS
BOSTON         FAIR      33  20  58 SW10      30.25R WCI  25          
BEVERLY        FAIR      27  22  81 W6        30.23R WCI  20          
LAWRENCE       FAIR      27  21  78 SW5       30.25R WCI  22          
BEDFORD        FAIR      28  21  75 SW3       30.24R                  
BLUE HILL        N/A     25  21  85 W15       30.20S WCI  13          
NORWOOD        FAIR      29  22  75 CALM      30.25R                  
MARSHFIELD     FAIR      28  27  93 CALM      30.26R                  
PLYMOUTH       FAIR      24  22  91 SW5       30.25R WCI  18          
TAUNTON        FAIR      25  20  81 CALM      30.27R                  
NEW BEDFORD    FAIR      24  22  91 CALM      30.28R FOG              
$$

MAZALL-120000-
CAPE COD AND THE ISLANDS
  
CITY           SKY/WX    TMP DP  RH WIND       PRES   REMARKS
FALMOUTH       NOT AVBL                                               
HYANNIS        FAIR      29  25  85 CALM      30.25R                  
CHATHAM        FAIR      29  28  96 W6        30.26R WCI  23          
PROVINCETOWN   MOCLDY    30  23  75 W12G21    30.26R WCI  20          
NANTUCKET      FAIR      30  26  85 W6        30.28R WCI  24          
MARTHAS VNYRD  FAIR      27  24  89 SW3       30.28R                  
$$
 
MAZALL-120000-
CENTRAL AND WESTERN MASSACHUSETTS
  
CITY           SKY/WX    TMP DP  RH WIND       PRES   REMARKS
WORCESTER      FAIR      23  18  81 W8        30.20R WCI  14          
FITCHBURG      FAIR      26  20  77 SW3       30.24R                  
ORANGE         FAIR      25  17  72 S3        30.23R                  
SPRINGFIELD    CLEAR     26  23  90 S3        30.24R                  
WESTFIELD      FAIR      24  19  81 S5        30.24R WCI  18          
NORTH ADAMS    FAIR      25  18  74 CALM      30.20F                  
PITTSFIELD     FAIR      27  21  78 SW7       30.17S WCI  19          
$$
 
RIZALL-120000-
RHODE ISLAND
  
CITY           SKY/WX    TMP DP  RH WIND       PRES   REMARKS
PROVIDENCE     FAIR      29  22  75 SW3       30.28R                  
NEWPORT        FAIR      30  20  66 W5        30.28R WCI  25          
BLOCK ISLAND   FAIR      30  26  85 W15       30.29R WCI  19          
SMITHFIELD     FAIR      24  21  88 W5        30.25R WCI  18          
WESTERLY       FAIR      28  21  75 CALM      30.30R                  
$$
 
CTZALL-120000-
CONNECTICUT
  
CITY           SKY/WX    TMP DP  RH WIND       PRES   REMARKS
BRADLEY INTL   FAIR      27  22  81 S7        30.26R WCI  19          
HARTFORD       FAIR      33  24  69 SW7       30.28R WCI  27          
BRIDGEPORT     FAIR      35  29  78 W8        30.30R WCI  29          
DANBURY        FAIR      28  25  88 VRB3      30.28R                  
GROTON         FAIR      31  24  75 NW6       30.29R WCI  25          
NEW HAVEN      FAIR      37  29  72 W6        30.30R                  
CHESTER        FAIR      30  27  86 W5        30.27R WCI  25          
MERIDEN        FAIR      28  24  85 S3        30.29R                  
WILLIMANTIC    FAIR      25  23  92 CALM      30.28R                  
OXFORD         FAIR      28  26  92 W6        30.26R WCI  22          
$$

MEZ002-015-021-024-NHZ003-005-008-011-012-014-VTZ005-008-120000-
NORTHERN NEW ENGLAND
  
CITY           SKY/WX    TMP DP  RH WIND       PRES   REMARKS
PORTLAND ME    FAIR      29  19  66 CALM      30.22R                  
BANGOR ME      FAIR      22  13  68 SW3       30.21R                  
CONCORD NH     FAIR      28  11  48 W12       30.21R WCI  18          
MANCHESTER NH  FAIR      30  19  63 CALM      30.21R                  
NASHUA NH      FAIR      24  22  91 CALM      30.24R                  
PORTSMOUTH NH  CLEAR     27  21  76 SW3       30.21R                  
JAFFREY NH     FAIR      20  18  92 S5        30.18R WCI  13          
KEENE NH       FAIR      25  18  74 CALM      30.22R                  
BURLINGTON VT  MOCLDY    30  14  51 S13       30.13R WCI  20          
MT. WASHINGTON FOG        0   0 100 W46         N/A  VSB 1/8 WCI -31  
$$

NYZ052-076-120000-
EASTERN NEW YORK
  
CITY           SKY/WX    TMP DP  RH WIND       PRES   REMARKS
ALBANY         MOCLDY    33  22  63 S7        30.23S WCI  27          
NEW YORK CITY  FAIR      38  21  50 W18G26    30.32R WCI  28          
$$
 
ANZALL-120000-
MARINE OBSERVATIONS
  
STATION/POSITION TIME  TEMP    WIND        PRES    VSBY  WAVE
                       AIR SEA DIR/SP/G                  HT/PER
                 (UTC) (F)     (DEG/KT/KT) (MB)    (MI)  (FT/S)
BOSTON BUOY      NOT AVBL
BUZZARDS BAY     2200   34     290/ 15/ 16 1025.1R
NANTUCKET SOUND  NOT AVBL
MASS BAY-STELLWA 2204   34 46  290/ 16/ 17 1022.1R  1 7/8  3/11
ISLE OF SHOALS   2200   33     250/ 15/ 19 1022.7R
S OF BLOCK IS    2300      53                N/A           4/ 8
$$

......................KEY.........................
  SKY/WX - SKY CONDITION/PRESENT WEATHER
  TMP    - TEMPERATURE IN FAHRENHEIT
  DWPT   - DEWPOINT IN FAHRENHEIT
  RH     - RELATIVE HUMIDITY IN PERCENT
  WIND   - DIRECTION AND SPEED IN MPH
  PRES   - MEAN SEA LEVEL PRESSURE IN INCHES OF HG
  WCI    - WIND CHILL INDEX
  VSB    - VISIBILITY IN MILES
  HX     - HEAT INDEX
  TC     - TEMPERATURE IN CELSIUS
  VRB    - VARIABLE WIND DIRECTION
  N/A    - NOT AVAILABLE
  
      

Other recent Regional Weather Roundups

Thu Dec 12, 3:10pm

Thu Dec 12, 3:00pm

Thu Dec 12, 2:10pm

Thu Dec 12, 2:01pm

Thu Dec 12, 1:10pm

Thu Dec 12, 1:00pm

Thu Dec 12, 12:10pm

Thu Dec 12, 12:00pm

Thu Dec 12, 11:10am

Thu Dec 12, 11:00am

Thu Dec 12, 10:10am

Thu Dec 12, 8:10am

Thu Dec 12, 8:00am

Thu Dec 12, 7:10am

Thu Dec 12, 7:00am

Thu Dec 12, 6:10am

Thu Dec 12, 6:00am

Thu Dec 12, 5:10am

Thu Dec 12, 5:00am

Thu Dec 12, 4:10am

Thu Dec 12, 4:00am

Thu Dec 12, 3:10am

Thu Dec 12, 3:00am

Thu Dec 12, 2:10am

Thu Dec 12, 2:00am

Thu Dec 12, 1:10am

Thu Dec 12, 1:00am

Thu Dec 12, 12:10am

Thu Dec 12, 12:00am

Wed Dec 11, 11:10pm

Wed Dec 11, 11:00pm

Wed Dec 11, 10:10pm

Wed Dec 11, 10:00pm

Wed Dec 11, 9:10pm

Wed Dec 11, 9:00pm

Wed Dec 11, 8:10pm

Wed Dec 11, 8:00pm

Wed Dec 11, 7:10pm

Wed Dec 11, 7:00pm

Wed Dec 11, 6:00pm

Wed Dec 11, 5:10pm

Wed Dec 11, 5:01pm

Wed Dec 11, 4:10pm

Wed Dec 11, 4:00pm

Wed Dec 11, 3:10pm

Wed Dec 11, 3:01pm

Wed Dec 11, 2:10pm

Wed Dec 11, 2:00pm

Wed Dec 11, 1:10pm

Wed Dec 11, 1:00pm

Wed Dec 11, 12:10pm

Wed Dec 11, 12:00pm

Wed Dec 11, 11:10am

Wed Dec 11, 11:00am

Wed Dec 11, 10:10am

Wed Dec 11, 10:00am

Wed Dec 11, 9:10am

Wed Dec 11, 9:00am

Wed Dec 11, 8:10am

Wed Dec 11, 8:00am

Wed Dec 11, 7:10am

Wed Dec 11, 7:00am

Wed Dec 11, 6:10am

Wed Dec 11, 6:00am

Wed Dec 11, 5:10am

Wed Dec 11, 5:00am

Wed Dec 11, 4:10am

Wed Dec 11, 4:00am

Wed Dec 11, 3:10am

Wed Dec 11, 3:01am

Wed Dec 11, 2:10am

Wed Dec 11, 2:01am

Wed Dec 11, 1:10am

Wed Dec 11, 1:00am

Wed Dec 11, 12:10am

Wed Dec 11, 12:00am

Tue Dec 10, 11:10pm

Tue Dec 10, 11:00pm

Tue Dec 10, 10:10pm

Tue Dec 10, 10:00pm

Tue Dec 10, 9:10pm

Tue Dec 10, 9:01pm

Tue Dec 10, 8:10pm

Tue Dec 10, 8:00pm

Tue Dec 10, 7:10pm

Tue Dec 10, 7:01pm

Tue Dec 10, 6:10pm

Tue Dec 10, 6:01pm

Tue Dec 10, 5:10pm

Tue Dec 10, 5:00pm

Tue Dec 10, 4:10pm

Tue Dec 10, 4:01pm

Tue Dec 10, 3:10pm

Tue Dec 10, 3:01pm

Tue Dec 10, 2:10pm

Tue Dec 10, 2:01pm

Tue Dec 10, 1:10pm

Tue Dec 10, 1:00pm

Tue Dec 10, 12:10pm

Tue Dec 10, 12:00pm

Tue Dec 10, 11:10am

Tue Dec 10, 11:00am

Tue Dec 10, 10:10am

Tue Dec 10, 10:00am

Tue Dec 10, 9:10am

Tue Dec 10, 9:01am

Tue Dec 10, 8:10am

Tue Dec 10, 8:00am

Tue Dec 10, 7:10am

Tue Dec 10, 7:00am

Tue Dec 10, 6:10am

Tue Dec 10, 6:00am

Tue Dec 10, 5:10am

Tue Dec 10, 5:00am

Tue Dec 10, 4:10am

Tue Dec 10, 4:00am

Tue Dec 10, 3:10am

Tue Dec 10, 3:00am

Tue Dec 10, 2:10am

Tue Dec 10, 2:01am

Tue Dec 10, 1:10am

Tue Dec 10, 1:00am

Tue Dec 10, 12:10am

Tue Dec 10, 12:01am

Mon Dec 9, 11:10pm

Mon Dec 9, 11:01pm

Mon Dec 9, 10:10pm

Mon Dec 9, 10:00pm

Mon Dec 9, 9:10pm

Mon Dec 9, 9:01pm

Mon Dec 9, 8:10pm

Mon Dec 9, 8:01pm

Mon Dec 9, 7:10pm

Mon Dec 9, 7:00pm

Mon Dec 9, 6:10pm

Mon Dec 9, 6:00pm

Mon Dec 9, 5:10pm

Mon Dec 9, 5:01pm

Mon Dec 9, 4:10pm

Mon Dec 9, 4:01pm

Meta data:

ID: 0ddccfa8-30a4-4def-a9a5-09fbc20d21cc
Link: https://api.weather.gov/products/0ddccfa8-30a4-4def-a9a5-09fbc20d21cc